Weather Roundup
Issued by NWS

Home | Current Version | Previous Version | Graphics & Text | Print | Product List | Glossary Off
Versions: 1 2 3 4 5 6 7 8 9 10 11 12 13 14 15 16 17 18 19 20 21 22 23 24 25 26 27 28 29 30 31 32 33 34 35 36 37 38 39 40 41 42 43 44 45 46 47 48 49 50

308
NZUS93 KARX 112310
HRRWXR

CURRENT HOURLY OBSERVATIONS ACROSS
MUCH OF THE UPPER MISSISSIPPI VALLEY
NATIONAL WEATHER SERVICE LA CROSSE WI
500 PM CST THU FEB 11 2016


...SOUTHEAST MINNESOTA...


CITY           SKY/WX    TMP DP  RH WIND       PRES   REMARKS
ROCHESTER      CLOUDY    10   1  67 SW12      30.22S WCI  -5
ROCHESTER/MAYO CLOUDY    13   2  59 S8        30.22F WCI   2
WINONA         CLOUDY    18   1  49 SW3       30.27S
AUSTIN         PTCLDY    10   3  72 SW7       30.22S WCI   0
ALBERT LEA     MOCLDY    12   3  67 SW7       30.21F WCI   2
DODGE CENTER   CLOUDY    10   3  72 SW7       30.21R WCI   0
PRESTON        PTCLDY    10  -1  61 SW7       30.23S WCI  -1
OWATONNA       CLOUDY    14   3  62 SW10      30.22R WCI   1
FARIBAULT      CLOUDY    16   5  62 SW9       30.23S WCI   4
$$

...ELSEWHERE IN MINNESOTA...


CITY           SKY/WX    TMP DP  RH WIND       PRES   REMARKS
MINNEAPOLIS    CLOUDY    16   0  49 SW8       30.24S WCI   5
INTNL FALLS    CLOUDY    11  -3  53 W10       30.12S WCI  -3
DULUTH         MOCLDY    12  -4  48 W14       30.11R WCI  -3
RED WING       CLOUDY    16   1  53 SW6       30.24S WCI   7
REDWOOD FALLS  CLOUDY    16  11  80 S8        30.20S HAZE    WCI   5
MANKATO        CLOUDY    16   3  57 SW9       30.22F WCI   4
WORTHINGTON    CLOUDY    14   9  79 S8        30.16S WCI   3
FAIRMONT       CLOUDY    12   5  73 S10       30.20F WCI  -1
$$

...SOUTHWEST WISCONSIN...


CITY           SKY/WX    TMP DP  RH WIND       PRES   REMARKS
LA CROSSE      MOCLDY    16  -1  47 S10       30.26R WCI   4
PRAIRIE DU CHI MOCLDY    18  -1  44 W5        30.28R WCI  11
BOSCOBEL       PTCLDY    19   1  45 SW8       30.27S WCI   9
LONE ROCK      CLEAR     17   0  47 SW8       30.26S WCI   7
PLATTEVILLE    CLEAR     17   2  54 CALM      30.25S
FORT MC COY    MOCLDY    18  -3  40 W5        30.24S WCI  11
CAMP DOUGLAS   CLEAR     16  -3  42 SW7       30.21F WCI   6
VIROQUA        FAIR      13  -1  52 SW7       30.21S WCI   3
WIS DELLS      CLEAR     17  -5  37 SW6       30.21F WCI   8
$$

...ELSEWHERE IN WISCONSIN...


CITY           SKY/WX    TMP DP  RH WIND       PRES   REMARKS
MILWAUKEE      PTCLDY    19  -2  39 W7        30.26F WCI  10
MADISON        PTCLDY    18  -5  36 VRB3      30.23F
GREEN BAY      CLEAR     16  -2  45 SW8       30.20F WCI   5
EAU CLAIRE     CLOUDY    15  -3  44 W6        30.22R WCI   6
BLACK RVR FLS  MOCLDY    18  -7  33 SW5       30.22S WCI  11
MEDFORD        CLOUDY    11  -4  51 SW6       30.13F WCI   1
WAUSAU         CLOUDY    13  -4  46 W8        30.16S WCI   2
WIS RAPIDS     MOCLDY    18  -7  32 W6        30.21F WCI  10
MARSHFIELD     CLOUDY    15  -6  39 W3        30.16F
RICE LAKE      CLOUDY    13  -2  49 SW7       30.21S WCI   3
$$

...NORTHEAST IOWA...


CITY           SKY/WX    TMP DP  RH WIND       PRES   REMARKS
WATERLOO       PTCLDY    15   4  61 S5        30.27R WCI   8
DUBUQUE        CLOUDY    17   3  54 NW3       30.24F
DECORAH        PTCLDY    12   0  57 VRB5      30.23S WCI   4
MASON CITY     CLOUDY    11   3  70 SW9       30.24F WCI  -2
CHARLES CITY   CLOUDY    12   1  62 SW6       30.25F WCI   3
OELWEIN        CLOUDY    14   3  62 SW5       30.25F WCI   6
$$

...ELSEWHERE IN IOWA...


CITY           SKY/WX    TMP DP  RH WIND       PRES   REMARKS
DES MOINES     LGT SNOW  20   6  55 SE6       30.25S WCI  12
IOWA CITY      MOCLDY    22   5  48 SE5       30.30R WCI  16
FORT DODGE     CLOUDY    12   7  79 S6        30.24F WCI   3
MARSHALLTOWN   CLOUDY    18   6  59 S6        30.25S WCI  10
CEDAR RAPIDS   CLOUDY    21   7  54 S6        30.25S WCI  13
$$

...NORTHERN ILLINOIS...


CITY           SKY/WX    TMP DP  RH WIND       PRES   REMARKS
CHICAGO-OHARE  PTCLDY    20   2  45 W5        30.27S WCI  13
CHICAGO-MIDWAY PTCLDY    22  -1  36 W8        30.29R WCI  12
MOLINE         CLEAR     23   0  36 CALM      30.28S
ROCKFORD       PTCLDY    19   3  49 CALM      30.29F
PEORIA         CLOUDY    25   1  35 CALM      30.30S
$$

NOTE: "FAIR" INDICATES FEW OR NO CLOUDS BELOW 12,000 FEET WITH NO
SIGNIFICANT WEATHER AND/OR OBSTRUCTIONS TO VISIBILITY. WIND
SPEEDS ARE IN MILES-PER-HOUR.




USA.gov is the U.S. government's official web portal to all federal, state and local government web resources and services.